Terminal Aerodrome Forecast
Issued by NWS Pueblo, CO

Home | Current Version | Previous Version | Text Only | Print | Product List | Glossary On
Versions: 1 2 3 4 5 6 7 8 9 10 11 12 13 14 15 16 17 18 19 20 21 22 23 24 25 26 27 28 29 30 31 32 33 34 35 36
000
FTUS45 KPUB 292333
TAFCOS
TAF
KCOS 292333Z 3000/3024 36014KT P6SM VCTS SCT080CB BKN150
      TEMPO 3000/3001 VRB15G32KT -TSRA BKN080CB
     FM300100 01010KT P6SM SCT120 SCT200
     FM301700 17009KT P6SM FEW120 SCT200
     FM302000 17012KT P6SM SCT120 SCT200=

USA.gov is the U.S. government's official web portal to all federal, state and local government web resources and services.